Regional Weather Roundup
Issued by NWS

Home | Current Version | Previous Version | Graphics & Text | Print | Product List | Glossary Off
Versions: 1 2 3 4 5 6 7 8 9 10 11 12 13 14 15 16 17 18 19 20 21 22 23 24 25 26 27 28 29 30 31 32 33 34 35 36 37 38 39 40 41 42 43 44 45 46 47 48 49 50

000
ASUS43 KLSX 041859
RWRMO

WEATHER SUMMARY FOR MISSOURI
NATIONAL WEATHER SERVICE SPRINGFIELD MO
200 PM CDT SAT JUL 04 2015

NOTE: "FAIR" INDICATES FEW OR NO CLOUDS BELOW 12,000 FEET WITH NO
       SIGNIFICANT WEATHER AND/OR OBSTRUCTIONS TO VISIBILITY.
       CURRENT SKY AND/OR WEATHER CONDITIONS ARE NOT AVAILABLE FOR
       CHILLICOTHE AND FARMINGTON.

MOZ001>031-035>038-043-044-053-054-042000-
...NORTHERN AND WESTERN MISSOURI...

CITY           SKY/WX    TMP DP  RH WIND       PRES   REMARKS
KANSAS CTY INT PTSUNNY   79  62  56 S6        30.01F
KANSAS C DTWN  SUNNY     82  60  47 VRB5      30.00S
LEE`S SUMMIT   SUNNY     80  59  48 E5        30.02F
ST JOSEPH      SUNNY     81  60  48 S8        29.99F
CHILLICOTHE      N/A     81  62  52 S5        30.02S
KIRKSVILLE     SUNNY     80  58  46 CALM      30.03S

$$
MOZ066>068-077>081-088>096-101>105-042000-
...SOUTHWEST MISSOURI...

CITY           SKY/WX    TMP DP  RH WIND       PRES   REMARKS
SPRINGFIELD    MOSUNNY   82  65  56 NE6       29.99F
JOPLIN         MOSUNNY   84  67  56 E6        29.99F

$$
MOZ032>034-039>042-045>050-055>058-069>072-042000-
...CENTRAL MISSOURI...

CITY           SKY/WX    TMP DP  RH WIND       PRES   REMARKS
COLUMBIA       SUNNY     80  62  54 VRB5      30.02S
JEFFERSON CITY SUNNY     81  60  48 MISG      30.00F
ROLLA          MOSUNNY   79  64  60 E7        30.01F
SEDALIA        SUNNY     81  62  52 SE5       30.03S
OSAGE BEACH    MOSUNNY   81  63  54 SE7       30.01S

$$
MOZ051-052-059>065-042000-
...EAST CENTRAL MISSOURI...

CITY           SKY/WX    TMP DP  RH WIND       PRES   REMARKS
ST LOUIS INTL  MOSUNNY   83  60  45 N3        30.01F
SPIRIT OF STL  PTSUNNY   81  62  52 CALM      30.00F
ST CHARLES     MOSUNNY   80  63  55 CALM      30.00F

$$
MOZ072>076-082>087-097>100-106>115-042000-
...SOUTH CENTRAL AND SOUTHEAST MISSOURI...

CITY           SKY/WX    TMP DP  RH WIND       PRES   REMARKS
CAPE GIRARDEAU NOT AVBL
FARMINGTON     PTSUNNY   81  64  57 E5        30.05F
POPLAR BLUFF   CLOUDY    80  70  71 E5        29.98S
WEST PLAINS    PTSUNNY   80  66  62 NE6       30.02F

$$



USA.gov is the U.S. government's official web portal to all federal, state and local government web resources and services.